{"data":{"norad_id":67346,"epoch":"2026-05-25T01:52:50.037024Z","epoch_age_seconds":58349,"freshness":"FRESH","line1":"1 67346U 26003N   26145.07835691  .00031152  00000+0  11371-2 0  9990","line2":"2 67346  43.0032 155.9226 0002180 258.2745 101.7862 15.27570257 20495","mean_motion":15.27570257,"eccentricity":0.000218,"inclination_deg":43.0032,"raan_deg":155.9226,"arg_perigee_deg":258.2745,"mean_anomaly_deg":101.7862,"bstar":0.0011371,"rev_number":2049,"period_min":94.267349956657,"perigee_km":481.58252531283,"apogee_km":484.57401517066,"semimajor_km":6861.2152702417,"source":"CELESTRAK","updated_at":"2026-05-25T13:38:21.524550Z"}}